FW9255 Weather Reports


time (UTC)temp
C
wind
direction
speed
KPH
gust
KPH
rain 1hr
cm
rain 24hr
cm
rain mn
cm
humidity
%
barometer
mb
20260509123126 20 0 0.0 14.5 0.00 0.00 0.00 89 1011.9
20260509121559 20 0 0.0 0.0 0.00 0.00 0.00 90 1011.8
20260509120107 20 0 0.0 0.0 0.00 0.00 0.00 90 1011.7
20260509114627 20 0 0.0 0.0 0.00 0.00 0.00 90 1011.5
20260509113136 20 0 0.0 0.0 0.00 0.00 0.00 90 1011.2
20260509111609 20 0 0.0 0.0 0.00 0.00 0.00 90 1010.9
20260509104557 20 0 0.0 0.0 0.00 0.00 0.00 89 1010.3
20260509103104 20 0 0.0 0.0 0.00 0.00 0.00 89 1010.0
20260509101600 20 0 0.0 0.0 0.00 0.00 0.00 88 1009.9
20260509100055 20 0 0.0 0.0 0.00 0.00 0.00 87 1010.0
20260509094600 21 0 0.0 0.0 0.00 0.00 0.00 87 1009.7
20260509093058 21 0 0.0 0.0 0.00 0.00 0.00 87 1009.2
20260509091557 21 0 0.0 0.0 0.00 0.00 0.00 86 1009.2
20260509084605 21 0 0.0 0.0 0.00 0.00 0.00 84 1009.1
20260509083054 21 0 0.0 8.0 0.00 0.00 0.00 84 1008.1
20260509081559 21 0 0.0 6.4 0.00 0.00 0.00 84 1007.6
20260509074557 21 0 0.0 8.0 0.00 0.00 0.00 85 1009.0
20260509073055 21 0 0.0 3.2 0.00 0.00 0.00 86 1010.0
20260509071555 21 0 0.0 14.5 0.00 0.00 0.00 87 1010.2
20260509070057 21 0 0.0 0.0 0.00 0.00 0.00 86 1010.7
20260509064600 21 0 0.0 0.0 0.00 0.00 0.00 86 1011.0
20260509063101 21 0 0.0 0.0 0.00 0.00 0.00 85 1011.6
20260509061607 21 0 0.0 0.0 0.00 0.00 0.00 85 1011.6
20260509054610 21 0 0.0 0.0 0.00 0.00 0.00 83 1011.4
20260509053104 21 0 0.0 0.0 0.00 0.00 0.00 82 1011.6
20260509051605 21 0 0.0 0.0 0.00 0.00 0.00 82 1012.2
20260509050057 21 0 0.0 0.0 0.00 0.00 0.00 82 1013.0
20260509044609 21 0 0.0 0.0 0.00 0.00 0.00 82 1013.1
20260509043053 21 0 0.0 0.0 0.00 0.00 0.00 81 1011.3
20260509041558 22 0 0.0 0.0 0.00 0.00 0.00 81 1011.5
20260509040057 22 0 0.0 0.0 0.00 0.00 0.00 80 1011.5
20260509034555 21 0 0.0 0.0 0.00 0.00 0.00 81 1010.7
20260509033056 22 0 0.0 0.0 0.00 0.00 0.00 81 1010.5
20260509031608 22 0 0.0 0.0 0.00 0.00 0.00 81 1011.8
20260509030057 22 0 0.0 0.0 0.00 0.00 0.00 81 1012.0
20260509024557 22 0 0.0 0.0 0.00 0.00 0.00 80 1011.1
20260509023103 22 0 0.0 0.0 0.00 0.00 0.00 79 1010.6
20260509021555 22 0 0.0 0.0 0.00 0.00 0.00 79 1009.9
20260509020058 22 0 0.0 0.0 0.00 0.00 0.00 78 1009.4
20260509014554 22 0 0.0 0.0 0.00 0.00 0.00 77 1009.6
20260509013100 22 0 0.0 0.0 0.00 0.00 0.00 76 1009.4
20260509011558 22 0 0.0 0.0 0.00 0.00 0.00 75 1009.8
20260509004608 23 0 0.0 0.0 0.00 0.00 0.00 73 1009.6
20260509003102 23 0 0.0 0.0 0.00 0.00 0.00 72 1009.2
20260509001556 23 0 0.0 0.0 0.00 0.00 0.00 71 1009.0
20260509000056 23 0 1.6 17.7 0.00 0.00 0.00 70 1009.1
20260508234557 24 0 0.0 9.7 0.00 0.00 0.00 69 1009.2
20260508233059 24 0 0.0 12.9 0.00 0.00 0.00 67 1009.5
20260508231558 25 0 0.0 9.7 0.00 0.00 0.00 67 1009.6
20260508230125 25 0 0.0 11.3 0.00 0.00 0.00 66 1009.4
20260508224603 25 0 0.0 12.9 0.00 0.00 0.00 66 1009.4
20260508223057 24 148 0.0 12.9 0.00 0.00 0.00 66 1009.8
20260508221555 25 0 0.0 14.5 0.00 0.00 0.00 66 1009.8
20260508220119 25 0 4.8 17.7 0.00 0.00 0.00 66 1009.8
20260508214557 25 0 3.2 16.1 0.00 0.00 0.00 64 1009.9
20260508213054 25 0 1.6 16.1 0.00 0.00 0.00 65 1009.9
20260508211555 25 213 1.6 12.9 0.00 0.00 0.00 66 1010.0
20260508210057 25 0 3.2 16.1 0.00 0.00 0.00 65 1009.9
20260508204601 24 136 0.0 11.3 0.00 0.00 0.00 66 1010.3
20260508203056 23 0 0.0 12.9 0.00 0.00 0.00 67 1011.7
20260508201555 24 0 0.0 9.7 0.00 0.00 0.00 66 1011.9
20260508200101 25 0 0.0 6.4 0.00 0.00 0.00 66 1011.8
20260508194555 24 0 0.0 0.0 0.00 0.00 0.00 66 1011.9
20260508193106 25 0 0.0 8.0 0.00 0.00 0.00 64 1012.0
20260508191555 25 0 0.0 14.5 0.00 0.00 0.00 64 1012.0
20260508190106 25 0 0.0 3.2 0.00 0.00 0.00 62 1012.1
20260508184556 25 0 0.0 11.3 0.00 0.00 0.00 64 1012.3
20260508183055 24 0 0.0 3.2 0.00 0.00 0.00 66 1012.3
20260508181611 24 0 0.0 4.8 0.00 0.00 0.00 66 1012.8
20260508180108 24 153 0.0 12.9 0.00 0.00 0.00 64 1013.1
20260508174625 23 0 0.0 0.0 0.00 0.00 0.00 66 1013.6
20260508173101 23 0 0.0 8.0 0.00 0.00 0.00 67 1013.5
20260508171603 22 0 0.0 12.9 0.00 0.00 0.00 68 1013.7
20260508170113 22 0 0.0 9.7 0.00 0.00 0.00 69 1014.0
20260508164603 21 129 0.0 12.9 0.00 0.00 0.00 69 1014.3
20260508163108 20 0 3.2 14.5 0.00 0.00 0.00 71 1014.8
20260508161602 19 0 0.0 6.4 0.00 0.00 0.00 74 1015.0
20260508160105 18 0 0.0 0.0 0.00 0.00 0.00 77 1015.2
20260508154555 18 0 0.0 0.0 0.00 0.00 0.00 81 1015.4
20260508153103 18 0 0.0 0.0 0.00 0.00 0.00 82 1015.5
20260508151554 18 0 0.0 0.0 0.00 0.00 0.00 80 1015.5
20260508150101 18 0 0.0 0.0 0.00 0.00 0.00 76 1015.8
20260508144557 18 0 0.0 0.0 0.00 0.00 0.00 79 1015.6
20260508143102 17 0 0.0 0.0 0.00 0.00 0.00 81 1015.6
20260508141600 17 0 0.0 0.0 0.00 0.00 0.00 82 1016.1
20260508140101 17 0 0.0 0.0 0.00 0.00 0.00 82 1015.9
20260508134613 17 0 0.0 0.0 0.00 0.00 0.00 86 1015.9
20260508133056 16 0 0.0 0.0 0.00 0.00 0.00 86 1015.7
20260508131555 16 0 0.0 0.0 0.00 0.00 0.00 87 1015.6
20260508130058 16 0 0.0 0.0 0.00 0.00 0.00 88 1015.8
20260508124559 16 0 0.0 0.0 0.00 0.00 0.00 89 1015.8